[Date Prev][Date Next][Thread Prev][Thread Next] - [Date Index][Thread Index][Author Index]
2 line ISS Keps - these update last ones by 37 sec's
- Subject: [sarex] 2 line ISS Keps - these update last ones by 37 sec's
- From: "Dr Dave Larsen [ PhD ]" <doc@xxxxxxxxxxx>
- Date: Fri, 27 Apr 2001 10:24:44 -0700
ISS
1 25544U 98067A 01117.61458333 .00035910 00000-0 46993-3 0 9085
2 25544 51.5674 343.4999 0017108 345.6357 345.7950 15.58086230139173
----
Via the sarex mailing list at AMSAT.ORG courtesy of AMSAT-NA.
To unsubscribe, send "unsubscribe sarex" to Majordomo@amsat.org
AMSAT Home